FOLSOM LAKE (FOL)

Elevation: 466' · AMERICAN R basin · Operator: US Bureau of Reclamation

Provisional data, subject to change.
Query executed Thursday at 12:26:49   clock

Select a sensor type for a plot of data.
Note: Reservoir Flows are daily averages.

Earlier

Date RES ELE    STORAGE    RES CHG    TOC STO    ABV TOC    OUTFLOW    INFLOW    EVAP    FNF    RIV REL    PPT INC    SPILL    DC PUMP    DIS PWR   
 FEET   AF   AF   AF   AF   CFS   CFS   CFS   CFS   CFS   INCHES   CFS   CFS   CFS  
03/26/2014 404.74 411785 2520 688900 -277115 535 1805 0 2410 0 0.00 0 58 477
03/27/2014 405.08 414171 2386 691300 -277129 609 1812 0 2250 0 0.79 0 54 555
03/28/2014 405.46 416862 2691 693700 -276838 529 1888 2 2062 0 0.04 0 52 477
03/29/2014 405.94 420260 3398 682400 -262140 964 2696 19 3374 0 0.00 0 53 911
03/30/2014 407.38 430599 10339 681600 -251001 358 5610 39 6529 0 1.35 0 56 302
03/31/2014 408.13 436041 5442 674200 -238159 509 3275 22 4010 0 0.00 0 60 449
04/01/2014 409.42 445521 9480 673800 -228279 532 5311 0 6001 0 0.28 0 61 471
04/02/2014 410.56 454004 8483 678900 -224896 592 4874 5 4994 0 0.08 0 50 542
04/03/2014 411.20 458807 4803 685000 -226193 930 3356 5 3434 0 0.08 0 46 884
04/04/2014 411.75 462963 4156 691400 -228437 864 2984 25 3775 0 0.00 0 60 804
04/05/2014 412.39 467828 4865 697000 -229172 144 2600 3 2956 0 0.03 0 72 72
04/06/2014 412.75 470575 2747 703100 -232525 939 2350 26 3134 0 0.00 0 74 865
04/07/2014 413.23 474255 3680 709300 -235045 811 2702 36 3562 0 0.00 0 71 740
04/08/2014 413.96 479880 5625 715900 -236020 266 3138 36 4641 0 0.00 0 73 193
04/09/2014 414.70 485634 5754 722200 -236566 597 3540 42 5403 0 0.00 0 64 533
04/10/2014 415.46 491581 5947 724600 -233019 595 3635 42 5345 0 0.00 0 87 508
04/11/2014 416.07 496377 4796 727000 -230623 620 3075 37 5203 0 0.00 0 89 531
04/12/2014 416.69 501293 4916 729400 -228107 641 3162 43 5370 0 0.00 0 86 555
04/13/2014 417.17 505112 3819 731800 -226688 644 2620 51 4122 0 0.00 0 87 557
04/14/2014 417.74 509674 4562 734100 -224426 547 2888 41 3797 0 0.00 0 94 453
04/15/2014 418.20 513371 3697 736500 -223129 816 2726 46 3985 0 0.00 4 100 712
04/16/2014 418.69 517330 3959 738900 -221570 629 2669 44 3688 0 0.00 0 94 535
04/17/2014 419.14 520975 3645 741300 -220325 587 2477 52 3805 0 0.00 0 96 491
04/18/2014 419.52 524074 3099 743700 -219626 818 2429 49 4305 0 0.00 0 95 723
04/19/2014 419.95 527579 3505 746000 -218421 612 2429 50 4009 0 0.00 0 105 507
04/20/2014 420.17 529386 1807 748400 -219014 839 1797 47 -- 0 0.00 0 111 728
04/21/2014 420.48 531937 2551 751600 -219663 850 2183 47 -- 0 0.00 0 111 739
04/22/2014 420.57 532678 741 757300 -224622 1575 1988 39 -- 0 0.00 0 103 1472
04/23/2014 420.53 532349 -329 762900 -230551 1605 1486 47 -- 0 0.00 0 98 1507
04/24/2014 -- -- -- -- -- -- -- -- -- -- -- -- -- --

Later | Latest

Warning! This data is preliminary and subject to revision.

Download Data Now Download Data Now | Show FOL Map | Plot FOL Data | 1 Month FOL Data | Real-Time FOL Data | FOL Info